StationID,Date,MaxTemp,MinTemp,Precipitation,Snowfall,SnowDepth
"CA008300405","1968-11-01",42.98,37.94,74.00,0.00,
"CA008300405","1968-11-02",46.94,37.94,0.00,0.00,
"CA008300405","1968-11-03",48.02,30.92,15.00,0.00,
"CA008300405","1968-11-04",46.04,35.96,0.00,0.00,
"CA008300405","1968-11-05",46.04,30.92,0.00,0.00,
"CA008300405","1968-11-06",44.06,30.02,28.00,0.00,
"CA008300405","1968-11-07",44.96,30.92,5.00,0.00,
"CA008300405","1968-11-08",37.94,30.92,302.00,51.00,
"CA008300405","1968-11-09",41.00,33.98,0.00,0.00,
"CA008300405","1968-11-10",35.96,28.04,183.00,51.00,
"CA008300405","1968-11-11",37.94,32.00,64.00,0.00,
"CA008300405","1968-11-12",44.96,33.98,147.00,0.00,
"CA008300405","1968-11-13",46.94,39.02,91.00,0.00,
"CA008300405","1968-11-14",37.94,33.08,10.00,0.00,
"CA008300405","1968-11-15",35.06,32.00,0.00,0.00,
"CA008300405","1968-11-16",35.96,28.04,8.00,8.00,
"CA008300405","1968-11-17",35.96,28.04,0.00,0.00,
"CA008300405","1968-11-18",39.92,26.06,157.00,0.00,
"CA008300405","1968-11-19",51.98,30.92,137.00,0.00,
"CA008300405","1968-11-20",37.04,30.92,0.00,0.00,
"CA008300405","1968-11-21",32.00,24.98,0.00,0.00,
"CA008300405","1968-11-22",35.96,21.02,33.00,20.00,
"CA008300405","1968-11-23",37.94,28.94,15.00,0.00,
"CA008300405","1968-11-24",50.00,26.96,30.00,0.00,
"CA008300405","1968-11-25",48.02,37.04,160.00,0.00,
"CA008300405","1968-11-26",33.08,28.94,0.00,0.00,
"CA008300405","1968-11-27",30.02,23.00,0.00,0.00,
"CA008300405","1968-11-28",37.04,23.00,99.00,58.00,
"CA008300405","1968-11-29",33.98,30.02,168.00,41.00,
"CA008300405","1968-11-30",26.96,24.98,0.00,0.00,
"CA008300405","1968-12-01",32.00,17.96,13.00,13.00,
"CA008300405","1968-12-02",32.00,28.04,18.00,18.00,
"CA008300405","1968-12-03",33.08,28.04,0.00,0.00,
"CA008300405","1968-12-04",44.06,28.04,229.00,15.00,
"CA008300405","1968-12-05",48.02,32.00,8.00,0.00,
"CA008300405","1968-12-06",35.96,30.92,0.00,0.00,
"CA008300405","1968-12-07",33.98,26.06,0.00,0.00,
"CA008300405","1968-12-08",30.02,19.94,178.00,178.00,
"CA008300405","1968-12-09",24.98,21.92,91.00,91.00,
"CA008300405","1968-12-10",24.98,17.96,36.00,36.00,
"CA008300405","1968-12-11",30.92,8.06,0.00,0.00,
"CA008300405","1968-12-12",39.02,21.02,0.00,0.00,
"CA008300405","1968-12-13",44.96,35.06,0.00,0.00,
"CA008300405","1968-12-14",46.04,37.94,13.00,0.00,
"CA008300405","1968-12-15",51.08,41.00,218.00,0.00,
"CA008300405","1968-12-16",42.98,39.92,8.00,0.00,
"CA008300405","1968-12-17",32.00,26.96,3.00,3.00,
"CA008300405","1968-12-18",24.98,17.06,3.00,3.00,
"CA008300405","1968-12-19",32.00,19.04,5.00,5.00,
"CA008300405","1968-12-20",35.06,26.96,0.00,0.00,
"CA008300405","1968-12-21",33.98,28.94,0.00,0.00,
"CA008300405","1968-12-22",30.92,28.04,0.00,0.00,
"CA008300405","1968-12-23",41.00,23.00,191.00,76.00,
"CA008300405","1968-12-24",37.94,30.92,38.00,38.00,
"CA008300405","1968-12-25",17.96,12.92,38.00,38.00,
"CA008300405","1968-12-26",6.98,3.92,0.00,0.00,
"CA008300405","1968-12-27",12.02,3.92,0.00,0.00,
"CA008300405","1968-12-28",42.08,5.00,114.00,89.00,
"CA008300405","1968-12-29",42.98,12.02,0.00,0.00,
"CA008300405","1968-12-30",24.98,21.92,0.00,0.00,
"CA008300405","1968-12-31",32.00,14.90,38.00,38.00,
"CA008300405","1969-01-01",37.94,14.00,196.00,127.00,
"CA008300405","1969-01-02",19.04,15.98,25.00,25.00,
"CA008300405","1969-01-03",19.94,8.96,13.00,13.00,
"CA008300405","1969-01-04",24.08,8.96,0.00,0.00,
"CA008300405","1969-01-05",21.02,6.98,0.00,0.00,
"CA008300405","1969-01-06",21.02,10.04,0.00,0.00,
"CA008300405","1969-01-07",33.98,8.06,157.00,107.00,
"CA008300405","1969-01-08",33.98,28.94,13.00,13.00,
"CA008300405","1969-01-09",32.00,28.04,23.00,23.00,
"CA008300405","1969-01-10",30.02,24.98,0.00,0.00,
"CA008300405","1969-01-11",19.94,10.94,10.00,10.00,
"CA008300405","1969-01-12",30.02,-2.02,13.00,13.00,
"CA008300405","1969-01-13",30.92,8.06,38.00,38.00,
"CA008300405","1969-01-14",32.00,26.06,46.00,46.00,
"CA008300405","1969-01-15",33.08,30.02,18.00,18.00,
"CA008300405","1969-01-16",28.94,26.06,0.00,0.00,
"CA008300405","1969-01-17",26.96,21.92,0.00,0.00,
"CA008300405","1969-01-18",35.06,21.92,56.00,30.00,
"CA008300405","1969-01-19",37.94,28.04,0.00,0.00,
"CA008300405","1969-01-20",17.96,15.98,46.00,46.00,
"CA008300405","1969-01-21",21.92,10.94,3.00,3.00,
"CA008300405","1969-01-22",35.06,14.90,0.00,0.00,
"CA008300405","1969-01-23",35.96,26.96,0.00,0.00,
"CA008300405","1969-01-24",37.04,21.92,0.00,0.00,
"CA008300405","1969-01-25",41.00,30.92,89.00,0.00,
"CA008300405","1969-01-26",30.92,26.06,117.00,117.00,
"CA008300405","1969-01-27",24.08,17.96,15.00,15.00,
"CA008300405","1969-01-28",21.92,3.92,36.00,36.00,
"CA008300405","1969-01-29",30.02,19.04,5.00,5.00,
"CA008300405","1969-01-30",32.00,28.04,33.00,0.00,
"CA008300405","1969-01-31",35.06,30.92,234.00,10.00,
"CA008300405","1969-02-01",30.02,21.92,43.00,43.00,
"CA008300405","1969-02-02",30.92,24.98,0.00,0.00,
"CA008300405","1969-02-03",42.08,21.02,122.00,5.00,
"CA008300405","1969-02-04",35.96,24.98,0.00,0.00,
"CA008300405","1969-02-05",14.00,5.00,3.00,3.00,
"CA008300405","1969-02-06",6.98,-2.02,0.00,0.00,
"CA008300405","1969-02-07",14.90,3.92,0.00,0.00,
"CA008300405","1969-02-08",21.02,10.04,0.00,0.00,
"CA008300405","1969-02-09",33.98,14.00,102.00,102.00,
"CA008300405","1969-02-10",39.92,26.96,56.00,0.00,
"CA008300405","1969-02-11",33.98,33.08,0.00,0.00,
"CA008300405","1969-02-12",33.98,30.92,114.00,114.00,
"CA008300405","1969-02-13",33.98,28.94,0.00,0.00,
"CA008300405","1969-02-14",35.96,21.92,25.00,25.00,
"CA008300405","1969-02-15",24.08,19.94,5.00,5.00,
"CA008300405","1969-02-16",28.94,21.02,0.00,0.00,
"CA008300405","1969-02-17",33.98,12.02,3.00,0.00,
"CA008300405","1969-02-18",37.04,21.92,0.00,0.00,
"CA008300405","1969-02-19",37.04,32.00,0.00,0.00,
"CA008300405","1969-02-20",35.96,28.04,0.00,0.00,
"CA008300405","1969-02-21",33.98,26.96,0.00,0.00,
"CA008300405","1969-02-22",35.06,28.94,0.00,0.00,
"CA008300405","1969-02-23",26.96,24.08,0.00,0.00,
"CA008300405","1969-02-24",28.94,24.98,0.00,0.00,
"CA008300405","1969-02-25",30.02,21.92,0.00,0.00,
"CA008300405","1969-02-26",32.00,26.06,13.00,13.00,
"CA008300405","1969-02-27",28.94,26.06,0.00,0.00,
"CA008300405","1969-02-28",30.92,24.98,0.00,0.00,
"CA008300405","1969-03-01",33.08,26.06,0.00,0.00,
"CA008300405","1969-03-02",35.06,19.04,0.00,0.00,
"CA008300405","1969-03-03",35.06,17.06,94.00,25.00,
"CA008300405","1969-03-04",33.98,28.04,0.00,0.00,
"CA008300405","1969-03-05",19.94,17.06,0.00,0.00,
"CA008300405","1969-03-06",17.06,3.92,0.00,0.00,
"CA008300405","1969-03-07",26.06,12.02,0.00,0.00,
"CA008300405","1969-03-08",24.98,17.06,10.00,10.00,
"CA008300405","1969-03-09",30.02,17.06,13.00,13.00,
"CA008300405","1969-03-10",33.98,21.92,25.00,8.00,
"CA008300405","1969-03-11",33.98,30.92,18.00,5.00,
"CA008300405","1969-03-12",33.98,30.92,130.00,109.00,
"CA008300405","1969-03-13",30.92,28.04,5.00,5.00,
"CA008300405","1969-03-14",30.92,28.04,3.00,3.00,
"CA008300405","1969-03-15",32.00,28.04,0.00,0.00,
"CA008300405","1969-03-16",35.06,26.96,3.00,3.00,
"CA008300405","1969-03-17",30.02,21.92,0.00,0.00,
"CA008300405","1969-03-18",26.96,8.96,0.00,0.00,
"CA008300405","1969-03-19",28.94,10.04,0.00,0.00,
"CA008300405","1969-03-20",35.06,17.96,0.00,0.00,
"CA008300405","1969-03-21",37.94,15.98,94.00,0.00,
"CA008300405","1969-03-22",42.08,30.92,36.00,0.00,
"CA008300405","1969-03-23",42.98,33.08,13.00,0.00,
"CA008300405","1969-03-24",46.94,30.02,0.00,0.00,
"CA008300405","1969-03-25",48.92,28.94,99.00,0.00,
"CA008300405","1969-03-26",42.98,35.06,3.00,0.00,
"CA008300405","1969-03-27",42.08,33.98,0.00,0.00,
"CA008300405","1969-03-28",37.04,26.96,0.00,0.00,
"CA008300405","1969-03-29",44.96,26.96,142.00,25.00,
"CA008300405","1969-03-30",28.94,21.02,48.00,48.00,
"CA008300405","1969-03-31",26.06,12.02,0.00,0.00,
"CA008300405","1969-04-01",32.00,15.98,64.00,64.00,
"CA008300405","1969-04-02",35.96,24.08,53.00,0.00,
"CA008300405","1969-04-03",26.06,17.96,0.00,0.00,
"CA008300405","1969-04-04",37.94,14.90,23.00,23.00,
"CA008300405","1969-04-05",41.00,30.02,193.00,0.00,
"CA008300405","1969-04-06",33.08,28.94,0.00,0.00,
"CA008300405","1969-04-07",37.94,23.00,13.00,13.00,
"CA008300405","1969-04-08",33.08,30.02,0.00,0.00,
"CA008300405","1969-04-09",42.08,21.92,0.00,0.00,
"CA008300405","1969-04-10",51.98,32.00,58.00,0.00,
"CA008300405","1969-04-11",46.94,42.08,0.00,0.00,
"CA008300405","1969-04-12",35.06,28.94,0.00,0.00,
"CA008300405","1969-04-13",48.02,21.02,30.00,5.00,
"CA008300405","1969-04-14",53.96,33.98,0.00,0.00,
"CA008300405","1969-04-15",53.06,32.00,0.00,0.00,
"CA008300405","1969-04-16",69.08,35.96,51.00,0.00,
"CA008300405","1969-04-17",60.08,46.94,0.00,0.00,
"CA008300405","1969-04-18",46.94,35.06,104.00,0.00,
"CA008300405","1969-04-19",32.00,28.94,147.00,76.00,
"CA008300405","1969-04-20",35.06,24.98,3.00,3.00,
"CA008300405","1969-04-21",39.02,24.98,0.00,0.00,
"CA008300405","1969-04-22",51.08,28.04,0.00,0.00,
"CA008300405","1969-04-23",49.10,35.06,122.00,25.00,
"CA008300405","1969-04-24",49.10,33.08,43.00,0.00,
"CA008300405","1969-04-25",41.00,33.08,13.00,10.00,
"CA008300405","1969-04-26",50.00,30.92,3.00,0.00,
"CA008300405","1969-04-27",51.08,30.92,28.00,0.00,
"CA008300405","1969-04-28",44.06,37.04,0.00,0.00,
"CA008300405","1969-04-29",44.06,35.96,0.00,0.00,
"CA008300405","1969-04-30",39.92,33.08,0.00,0.00,
"CA008300405","1969-12-01",39.02,30.92,79.00,13.00,
"CA008300405","1969-12-02",48.02,33.08,165.00,0.00,
"CA008300405","1969-12-03",48.02,30.92,89.00,0.00,
"CA008300405","1969-12-04",48.02,32.00,0.00,0.00,
"CA008300405","1969-12-05",33.98,28.94,0.00,0.00,
"CA008300405","1969-12-06",33.98,26.96,0.00,0.00,
"CA008300405","1969-12-07",33.98,23.00,25.00,25.00,
"CA008300405","1969-12-08",37.94,30.92,0.00,0.00,
"CA008300405","1969-12-09",42.98,32.00,66.00,0.00,
"CA008300405","1969-12-10",49.10,39.92,56.00,0.00,
"CA008300405","1969-12-11",55.94,46.04,89.00,0.00,
"CA008300405","1969-12-12",49.10,42.08,0.00,0.00,
"CA008300405","1969-12-13",41.00,32.00,8.00,0.00,
"CA008300405","1969-12-14",37.04,33.98,15.00,0.00,
"CA008300405","1969-12-15",33.98,28.04,51.00,51.00,
"CA008300405","1969-12-16",32.00,30.92,41.00,41.00,
"CA008300405","1969-12-17",32.00,26.96,0.00,0.00,
"CA008300405","1969-12-18",30.02,23.00,8.00,8.00,
"CA008300405","1969-12-19",33.98,19.94,160.00,160.00,
"CA008300405","1969-12-20",33.98,23.00,0.00,0.00,
"CA008300405","1969-12-21",33.98,19.94,0.00,0.00,
"CA008300405","1969-12-22",39.92,14.00,,0.00,
"CA008300405","1969-12-23",21.92,17.06,0.00,0.00,
"CA008300405","1969-12-24",24.98,10.94,38.00,38.00,
"CA008300405","1969-12-25",26.06,15.98,0.00,0.00,
"CA008300405","1969-12-26",42.08,14.00,0.00,0.00,
"CA008300405","1969-12-27",49.10,24.08,0.00,0.00,
"CA008300405","1969-12-28",48.02,39.92,0.00,0.00,
"CA008300405","1969-12-29",39.92,30.02,0.00,0.00,
"CA008300405","1969-12-30",30.02,17.06,0.00,0.00,
"CA008300405","1969-12-31",24.08,12.02,0.00,0.00,
"CA008300405","1970-01-01",15.98,12.92,0.00,0.00,
"CA008300405","1970-01-02",26.06,14.90,0.00,0.00,
"CA008300405","1970-01-03",21.92,10.94,0.00,0.00,
"CA008300405","1970-01-04",19.94,17.96,0.00,0.00,
"CA008300405","1970-01-05",,,0.00,0.00,
"CA008300405","1970-01-06",21.02,15.98,0.00,0.00,
"CA008300405","1970-01-07",17.96,12.02,15.00,15.00,
"CA008300405","1970-01-08",21.02,10.04,0.00,0.00,
"CA008300405","1970-01-09",14.90,1.04,0.00,0.00,
"CA008300405","1970-01-10",14.90,8.96,0.00,0.00,
"CA008300405","1970-01-11",14.90,10.04,0.00,0.00,
"CA008300405","1970-01-12",12.92,3.02,3.00,3.00,
"CA008300405","1970-01-13",19.94,10.04,23.00,23.00,
"CA008300405","1970-01-14",23.00,10.04,3.00,3.00,
"CA008300405","1970-01-15",28.94,10.94,0.00,0.00,
"CA008300405","1970-01-16",26.06,17.06,0.00,0.00,
"CA008300405","1970-01-17",28.04,12.02,0.00,0.00,
"CA008300405","1970-01-18",8.96,1.94,0.00,0.00,
"CA008300405","1970-01-19",10.04,-3.10,0.00,0.00,
"CA008300405","1970-01-20",8.06,-3.10,0.00,0.00,
"CA008300405","1970-01-21",10.94,-7.06,0.00,0.00,
"CA008300405","1970-01-22",23.00,1.04,0.00,0.00,
"CA008300405","1970-01-23",21.02,1.04,25.00,25.00,
"CA008300405","1970-01-24",12.92,3.02,0.00,0.00,
"CA008300405","1970-01-25",17.06,-0.04,0.00,0.00,
"CA008300405","1970-01-26",21.02,1.04,0.00,0.00,
"CA008300405","1970-01-27",23.00,8.06,0.00,0.00,
"CA008300405","1970-01-28",24.98,10.94,8.00,8.00,
"CA008300405","1970-01-29",37.94,8.96,48.00,48.00,
"CA008300405","1970-01-30",30.92,24.98,0.00,0.00,
"CA008300405","1970-01-31",24.98,1.04,0.00,0.00,
"CA008300405","1970-02-01",35.06,3.02,0.00,0.00,
"CA008300405","1970-02-02",44.06,23.00,15.00,0.00,
"CA008300405","1970-02-03",51.08,33.98,64.00,0.00,
"CA008300405","1970-02-04",51.08,42.98,91.00,0.00,
"CA008300405","1970-02-05",23.00,12.92,0.00,0.00,
"CA008300405","1970-02-06",26.96,14.00,0.00,0.00,
"CA008300405","1970-02-07",30.02,12.92,0.00,0.00,
"CA008300405","1970-02-08",33.08,23.00,0.00,0.00,
"CA008300405","1970-02-09",33.08,23.00,0.00,0.00,
"CA008300405","1970-02-10",37.04,23.00,0.00,0.00,
"CA008300405","1970-02-11",42.08,28.94,41.00,0.00,
"CA008300405","1970-02-12",35.06,30.02,0.00,0.00,
"CA008300405","1970-02-13",23.00,14.00,0.00,0.00,
"CA008300405","1970-02-14",8.96,-0.04,25.00,25.00,
"CA008300405","1970-02-15",30.92,-0.04,51.00,51.00,
"CA008300405","1970-02-16",26.06,-0.04,0.00,0.00,
"CA008300405","1970-02-17",19.94,1.94,0.00,0.00,
"CA008300405","1970-02-18",28.94,5.90,0.00,0.00,
"CA008300405","1970-02-19",28.04,17.96,0.00,0.00,
"CA008300405","1970-02-20",26.06,8.96,0.00,0.00,
"CA008300405","1970-02-21",12.02,5.90,0.00,0.00,
"CA008300405","1970-02-22",33.08,-0.04,0.00,0.00,
"CA008300405","1970-02-23",33.08,12.02,51.00,51.00,
"CA008300405","1970-02-24",8.06,-4.00,0.00,0.00,
"CA008300405","1970-02-25",35.96,-0.04,0.00,0.00,
"CA008300405","1970-02-26",12.92,8.96,0.00,0.00,
"CA008300405","1970-02-27",17.06,1.94,0.00,0.00,
"CA008300405","1970-02-28",19.94,5.90,0.00,0.00,
"CA008300405","1970-03-01",26.06,10.04,0.00,0.00,
"CA008300405","1970-03-02",28.04,8.06,0.00,0.00,
"CA008300405","1970-03-03",24.08,17.06,0.00,0.00,
"CA008300405","1970-03-04",24.08,17.96,0.00,0.00,
"CA008300405","1970-03-05",26.06,5.90,0.00,0.00,
"CA008300405","1970-03-06",30.92,19.94,64.00,64.00,
"CA008300405","1970-03-07",30.92,26.06,25.00,25.00,
"CA008300405","1970-03-08",35.06,24.08,51.00,51.00,
"CA008300405","1970-03-09",32.00,24.08,25.00,25.00,
"CA008300405","1970-03-10",24.98,17.06,0.00,0.00,
"CA008300405","1970-03-11",28.94,14.00,0.00,0.00,
"CA008300405","1970-03-12",33.98,19.04,0.00,0.00,
"CA008300405","1970-03-13",35.96,19.04,3.00,3.00,
"CA008300405","1970-03-14",33.98,26.96,5.00,5.00,
"CA008300405","1970-03-15",33.98,26.96,0.00,0.00,
"CA008300405","1970-03-16",32.00,26.06,71.00,71.00,
"CA008300405","1970-03-17",33.98,26.96,25.00,25.00,
"CA008300405","1970-03-18",37.94,24.08,0.00,0.00,
"CA008300405","1970-03-19",44.96,21.02,0.00,0.00,
"CA008300405","1970-03-20",46.04,24.98,0.00,0.00,
"CA008300405","1970-03-21",39.92,19.04,0.00,0.00,
"CA008300405","1970-03-22",37.94,28.04,0.00,0.00,
"CA008300405","1970-03-23",33.08,21.92,66.00,66.00,
"CA008300405","1970-03-24",39.02,26.96,0.00,0.00,
"CA008300405","1970-03-25",39.92,32.00,0.00,0.00,
"CA008300405","1970-03-26",37.94,30.92,0.00,0.00,
"CA008300405","1970-03-27",44.96,28.04,64.00,0.00,
"CA008300405","1970-03-28",44.96,30.92,0.00,0.00,
"CA008300405","1970-03-29",39.92,32.00,13.00,13.00,
"CA008300405","1970-03-30",26.96,19.94,0.00,0.00,
"CA008300405","1970-03-31",35.06,19.94,0.00,0.00,
